STARLINK-1955 (47556 NORAD) Tracking and Keplerian Element Data

This shows tracking and keplerian element data for the satellite.

Feedback or suggestion? Click here.




ElementValue
Catalog47556
NameSTARLINK-1955
Epoch Orbit1060
Epoch Day99.91667824
Epoch Year2021
RAAN178.6553
Inclination53.0536
Eccentricity0.0001016
Argument of Perigee79.6059
Mean Anonmoly71.327
Mean Motion15.06414091
Decay Rate-0.00027396
L11 47556U 21009J 21099.91667824 -.00027396 00000-0 -18267-2 0 9998
L22 47556 53.0536 178.6553 0001016 79.6059 71.3270 15.06414091 10608

Live tracking and technical data element details for STARLINK-1955 (NORAD 47556). STARLINK-1955 can be tracked NOW for your location showing map with azimuth and elevation plus other details from your city location.

Track the satellite on the map from your city or location and see movement details for azimuth, elevation, latitude, longitude, range, height, and movement on the map or in text.







IsCatalogInMostPopularTable: catalog: 47556, numindb: 14
Update: records affected: 1



GetName: 47556 STARLINK-1955

Hit Count: updated at: Sat, 10 Apr 2021 18:44:14 GMT